#timestamp,LO_Frequency,Hit,Temp,Hum 
1479614415.1,286046961.8,N,0.0,0.0
1479614435.9,286046964.3,N,0.0,0.0
1479614455.7,286046963.2,N,0.0,0.0
1479614475.6,286046961.4,N,0.0,0.0
1479614495.4,286046964.4,N,0.0,0.0
1479614515.2,286046964.3,N,0.0,0.0
1479614535.1,286046963.3,N,0.0,0.0
1479614536.0,286046963.3,N,0.0,0.0
1479614555.8,286046962.9,N,0.0,0.0
1479614575.7,286046965.6,N,0.0,0.0
1479614595.5,286046966.0,N,0.0,0.0
1479614615.3,286046964.9,N,0.0,0.0
1479614635.2,286046967.5,N,0.0,0.0
1479614655.9,286046967.4,N,0.0,0.0
1479614675.7,286046966.4,N,0.0,0.0
1479614695.6,286046969.1,N,0.0,0.0
1479614715.4,286046966.6,N,0.0,0.0
1479614735.3,286046966.3,N,0.0,0.0
1479614755.1,286046964.9,N,0.0,0.0
1479614756.0,286046964.9,N,0.0,0.0
1479614775.8,286046967.3,N,0.0,0.0
1479614795.7,286046965.1,N,0.0,0.0
1479614815.5,286046965.7,N,0.0,0.0
1479614835.3,286046964.9,N,0.0,0.0
1479614855.2,286046969.1,N,0.0,0.0
1479614875.0,286046967.1,N,0.0,0.0
1479614875.9,286046967.1,N,0.0,0.0
1479614895.8,286046964.6,N,0.0,0.0
1479614915.6,286046964.7,N,0.0,0.0
1479614935.4,286046965.8,N,0.0,0.0
1479614955.3,286046966.0,N,0.0,0.0
1479614975.1,286046963.2,N,0.0,0.0
1479614995.9,286046964.4,N,0.0,0.0
1479615015.7,286046964.4,N,0.0,0.0
1479615035.5,286046964.0,N,0.0,0.0
1479615055.4,286046961.3,N,0.0,0.0
1479615075.2,286046964.4,N,0.0,0.0
1479615095.0,286046964.1,N,0.0,0.0
1479615095.9,286046964.1,N,0.0,0.0
1479615115.8,286046962.2,N,0.0,0.0
1479615135.6,286046961.8,N,0.0,0.0
1479615155.5,286046960.8,N,0.0,0.0
1479615175.3,286046958.2,N,0.0,0.0
1479615195.1,286046956.9,N,0.0,0.0
1479615215.9,286046956.1,N,0.0,0.0
1479615235.7,286046954.1,N,0.0,0.0
1479615255.5,286046953.6,N,0.0,0.0
1479615275.4,286046953.6,N,0.0,0.0
1479615295.2,286046953.3,N,0.0,0.0
1479615315.1,286046956.1,N,0.0,0.0
1479615316.0,286046956.1,N,0.0,0.0
1479615335.8,286046955.2,N,0.0,0.0
1479615355.6,286046955.7,N,0.0,0.0
1479615375.5,286046955.1,N,0.0,0.0
1479615395.3,286046955.4,N,0.0,0.0
1479615415.2,286046957.3,N,0.0,0.0
1479615435.9,286046957.4,N,0.0,0.0
1479615455.7,286046957.1,N,0.0,0.0
1479615475.6,286046957.3,N,0.0,0.0
1479615495.4,286046956.7,N,0.0,0.0
1479615515.2,286046957.8,N,0.0,0.0
1479615535.1,286046957.8,N,0.0,0.0
1479615536.0,286046957.8,N,0.0,0.0
1479615555.8,286046957.4,N,0.0,0.0
1479615575.7,286046957.1,N,0.0,0.0
1479615595.5,286046957.5,N,0.0,0.0
1479615615.3,286046957.5,N,0.0,0.0
1479615635.2,286046955.3,N,0.0,0.0
1479615655.0,286046955.3,N,0.0,0.0
1479615655.9,286046955.3,N,0.0,0.0
1479615675.8,286046956.0,N,0.0,0.0
1479615695.6,286046953.3,N,0.0,0.0
1479615715.4,286046956.4,N,0.0,0.0
1479615735.3,286046956.0,N,0.0,0.0
1479615755.1,286046953.6,N,0.0,0.0
1479615775.8,286046954.5,N,0.0,0.0
1479615795.7,286046954.3,N,0.0,0.0
1479615815.5,286046954.3,N,0.0,0.0
1479615835.4,286046952.3,N,0.0,0.0
1479615855.2,286046952.3,N,0.0,0.0
1479615875.0,286046952.2,N,0.0,0.0
1479615875.9,286046952.2,N,0.0,0.0
1479615895.8,286046951.8,N,0.0,0.0
1479615915.6,286046953.2,N,0.0,0.0
1479615935.4,286046950.6,N,0.0,0.0
1479615955.3,286046950.7,N,0.0,0.0
1479615975.1,286046950.9,N,0.0,0.0
1479615995.9,286046948.6,N,0.0,0.0
1479616015.7,286046949.1,N,0.0,0.0
1479616035.5,286046949.3,N,0.0,0.0
1479616055.4,286046948.7,N,0.0,0.0
1479616075.2,286046946.9,N,0.0,0.0
1479616095.0,286046950.0,N,0.0,0.0
1479616096.0,286046950.0,N,0.0,0.0
1479616115.8,286046947.1,N,0.0,0.0
1479616135.6,286046946.9,N,0.0,0.0
1479616155.5,286046947.7,N,0.0,0.0
1479616175.3,286046948.0,N,0.0,0.0
1479616195.1,286046945.5,N,0.0,0.0
1479616215.9,286046945.9,N,0.0,0.0
1479616235.7,286046943.8,N,0.0,0.0
1479616255.6,286046944.1,N,0.0,0.0
1479616275.4,286046944.0,N,0.0,0.0
1479616295.2,286046944.2,N,0.0,0.0
1479616315.1,286046944.3,N,0.0,0.0
1479616316.0,286046944.3,N,0.0,0.0
1479616335.8,286046944.9,N,0.0,0.0
1479616355.6,286046942.5,N,0.0,0.0
1479616375.5,286046944.7,N,0.0,0.0
1479616395.3,286046942.9,N,0.0,0.0
1479616415.2,286046942.8,N,0.0,0.0
1479616435.9,286046942.4,N,0.0,0.0
1479616455.7,286046942.4,N,0.0,0.0
1479616475.6,286046943.6,N,0.0,0.0
1479616495.4,286046943.2,N,0.0,0.0
1479616515.2,286046940.5,N,0.0,0.0
1479616535.1,286046942.9,N,0.0,0.0
1479616536.0,286046942.9,N,0.0,0.0
1479616555.8,286046940.7,N,0.0,0.0
1479616575.7,286046943.1,N,0.0,0.0
1479616595.5,286046940.5,N,0.0,0.0
1479616615.3,286046943.2,N,0.0,0.0
1479616635.2,286046941.2,N,0.0,0.0
1479616655.0,286046941.3,N,0.0,0.0
1479616655.9,286046941.3,N,0.0,0.0
1479616675.8,286046941.4,N,0.0,0.0
1479616695.6,286046941.1,N,0.0,0.0
1479616715.4,286046941.6,N,0.0,0.0
1479616735.3,286046942.0,N,0.0,0.0
1479616755.1,286046942.0,N,0.0,0.0
1479616775.8,286046941.6,N,0.0,0.0
1479616795.7,286046941.3,N,0.0,0.0
1479616815.5,286046941.3,N,0.0,0.0
1479616835.4,286046940.6,N,0.0,0.0
1479616855.2,286046941.0,N,0.0,0.0
1479616875.0,286046939.0,N,0.0,0.0
1479616875.9,286046939.0,N,0.0,0.0
1479616895.8,286046939.8,N,0.0,0.0
1479616915.6,286046937.9,N,0.0,0.0
1479616935.4,286046937.8,N,0.0,0.0
1479616955.3,286046940.2,N,0.0,0.0
1479616975.1,286046940.4,N,0.0,0.0
1479616995.9,286046937.8,N,0.0,0.0
1479617015.7,286046937.8,N,0.0,0.0
1479617035.5,286046934.3,N,0.0,0.0
1479617055.4,286046935.6,N,0.0,0.0
1479617075.2,286046932.9,N,0.0,0.0
1479617095.0,286046934.9,N,0.0,0.0
1479617095.9,286046934.9,N,0.0,0.0
1479617115.8,286046933.4,N,0.0,0.0
1479617135.6,286046932.2,N,0.0,0.0
1479617155.5,286046927.9,N,0.0,0.0
1479617175.3,286046924.8,N,0.0,0.0
1479617195.1,286046927.5,N,0.0,0.0
1479617215.9,286046929.1,N,0.0,0.0
1479617235.7,286046928.2,N,0.0,0.0
1479617255.5,286046932.4,N,0.0,0.0
1479617275.4,286046931.9,N,0.0,0.0
1479617295.2,286046933.4,N,0.0,0.0
1479617315.1,286046935.4,N,0.0,0.0
1479617316.0,286046935.4,N,0.0,0.0
1479617335.8,286046937.0,N,0.0,0.0
1479617355.6,286046935.8,N,0.0,0.0
1479617375.5,286046937.6,N,0.0,0.0
1479617395.3,286046940.2,N,0.0,0.0
1479617415.2,286046939.7,N,0.0,0.0
1479617435.9,286046932.6,N,0.0,0.0
1479617455.7,286046929.9,N,0.0,0.0
1479617475.6,286046930.5,N,0.0,0.0
1479617495.4,286046927.9,N,0.0,0.0
1479617515.2,286046928.9,N,0.0,0.0
1479617535.1,286046926.4,N,0.0,0.0
1479617536.0,286046926.4,N,0.0,0.0
1479617555.8,286046925.2,N,0.0,0.0
1479617575.7,286046923.6,N,0.0,0.0
1479617595.5,286046922.4,N,0.0,0.0
1479617615.3,286046920.9,N,0.0,0.0
1479617635.2,286046916.5,N,0.0,0.0
1479617655.9,286046919.5,N,0.0,0.0
1479617675.7,286046916.8,N,0.0,0.0
1479617695.6,286046917.2,N,0.0,0.0
1479617715.4,286046916.7,N,0.0,0.0
1479617735.3,286046919.2,N,0.0,0.0
1479617755.1,286046916.6,N,0.0,0.0
1479617756.0,286046916.6,N,0.0,0.0
1479617775.8,286046919.1,N,0.0,0.0
1479617795.7,286046918.8,N,0.0,0.0
1479617815.5,286046920.9,N,0.0,0.0
1479617835.3,286046918.5,N,0.0,0.0
1479617855.2,286046918.5,N,0.0,0.0
1479617875.0,286046921.1,N,0.0,0.0
1479617875.9,286046921.1,N,0.0,0.0
1479617895.8,286046920.0,N,0.0,0.0
1479617915.6,286046920.4,N,0.0,0.0
1479617935.4,286046920.5,N,0.0,0.0
1479617955.3,286046921.2,N,0.0,0.0
1479617975.1,286046920.0,N,0.0,0.0
1479617995.9,286046920.6,N,0.0,0.0
